Tracking 25949 objects as of 8-Aug-2022
HD Live streaming from Space Station
objects crossing your sky now

COSMOS 1275 DEB

Track COSMOS 1275 DEB now!
10-day predictions


NORAD ID: 12759
Int'l Code: 1981-053DC
Perigee: 861.4 km
Apogee: 933.4 km
Inclination: 82.9 °
Period: 102.8 minutes
Semi major axis: 7268 km
RCS: 0.0125 m2 (small)
Launch date: June 4, 1981
Source: Commonwealth of Independent States (former USSR) (CIS)
Launch site: PLESETSK MISSILE AND SPACE COMPLEX (PKMTR)

Note: This is SATELLITE DEBRIS
aabbcc
Your satellite tracking list
Your tracking list is empty




NASA's NSSDC Master Catalog

Two Line Element Set (TLE):
1 12759U 81053DC  22220.35416961  .00000584  00000-0  37530-3 0  9992
2 12759  82.8601  80.5920 0049480  43.6534  80.8076 14.01017737 84715
Source of the keplerian elements: AFSPC